FW9747 Weather Reports


time (UTC)temp
C
wind
direction
speed
KPH
gust
KPH
rain 1hr
cm
rain 24hr
cm
rain mn
cm
humidity
%
barometer
mb
20260906204641 22 315 25.7 35.4 0.00 0.00 0.00 82 1016.4
20260906203057 23 350 17.7 25.7 0.00 0.00 0.00 79 1016.3
20260906201620 24 39 8.0 17.7 0.00 0.00 0.00 79 1015.8
20260906200100 24 86 9.7 19.3 0.00 0.00 0.00 79 1015.8
20260906194605 25 105 19.3 37.0 0.00 0.00 0.00 77 1014.9
20260906193109 24 92 19.3 32.2 0.00 0.00 0.00 76 1014.5
20260906191621 24 49 25.7 33.8 0.00 0.00 0.00 77 1014.6
20260906184559 24 119 12.9 24.1 0.00 0.00 0.00 77 1015.2
20260906183104 24 53 9.7 22.5 0.00 0.00 0.00 77 1015.5
20260906181559 24 78 11.3 24.1 0.00 0.00 0.00 78 1015.7
20260906174612 23 57 17.7 25.7 0.00 0.00 0.00 1015.9
20260906173100 22 64 12.9 19.3 0.00 0.00 0.00 1016.7
20260906171600 21 96 9.7 20.9 0.00 0.00 0.00 1017.1
20260906170114 21 55 9.7 17.7 0.00 0.00 0.00 1017.3
20260906164604 21 85 11.3 19.3 0.00 0.00 0.00 1017.3
20260906163100 20 75 6.4 14.5 0.00 0.00 0.00 1017.5
20260906161607 20 33 6.4 12.9 0.00 0.00 0.00 1017.5
20260906160057 19 17 1.6 8.0 0.00 0.00 0.00 1018.0
20260906154556 19 86 0.0 4.8 0.00 0.00 0.00 1018.0
20260906153121 18 86 3.2 4.8 0.00 0.00 0.00 1017.8
20260906151601 18 72 4.8 8.0 0.00 0.00 0.00 1017.6
20260906150104 18 36 4.8 6.4 0.00 0.00 0.00 1017.5
20260906144605 18 352 1.6 8.0 0.00 0.03 0.00 1017.4
20260906143107 17 27 1.6 4.8 0.00 0.03 0.00 1017.5
20260906141610 17 148 0.0 1.6 0.00 0.03 0.00 1017.6
20260906140109 17 148 0.0 8.0 0.00 0.03 0.00 1017.6
20260906134622 17 131 3.2 11.3 0.00 0.33 0.00 99 1017.6
20260906133104 16 145 3.2 6.4 0.00 0.33 0.00 99 1017.7
20260906131556 16 149 3.2 9.7 0.00 0.33 0.00 99 1017.6
20260906130104 15 0 0.0 8.0 0.00 0.33 0.00 99 1017.2
20260906124607 15 36 1.6 8.0 0.00 0.53 0.00 99 1017.2
20260906123059 15 53 3.2 8.0 0.00 0.53 0.00 98 1017.2
20260906121602 14 348 4.8 8.0 0.00 0.53 0.00 98 1017.3
20260906120108 14 333 6.4 9.7 0.00 0.53 0.00 98 1017.3
20260906114622 14 313 0.0 4.8 0.00 0.53 0.00 98 1017.4
20260906113104 14 0 0.0 3.2 0.00 0.53 0.00 98 1017.4
20260906111624 14 0 0.0 0.0 0.00 0.53 0.00 98 1017.2
20260906110056 14 0 0.0 3.2 0.00 0.53 0.00 98 1017.2
20260906104606 14 340 3.2 6.4 0.00 0.53 0.00 98 1017.1
20260906103107 14 0 0.0 4.8 0.00 0.53 0.00 98 1016.7
20260906101557 14 28 3.2 6.4 0.00 0.53 0.00 97 1016.7
20260906094558 14 0 0.0 3.2 0.00 0.53 0.00 97 1016.6
20260906093105 14 63 0.0 4.8 0.00 0.53 0.00 98 1016.5
20260906091604 15 0 0.0 4.8 0.00 0.53 0.00 97 1016.6
20260906090116 15 352 0.0 4.8 0.00 0.53 0.00 97 1016.5
20260906084612 15 0 1.6 6.4 0.00 0.53 0.00 97 1016.7
20260906083103 15 304 3.2 8.0 0.00 0.53 0.00 97 1016.6
20260906081601 15 331 3.2 6.4 0.00 0.53 0.00 97 1016.6
20260906074607 16 0 0.0 6.4 0.00 0.53 0.00 97 1016.4
20260906073108 16 115 3.2 9.7 0.00 0.53 0.00 96 1016.0
20260906071558 16 126 6.4 12.9 0.00 0.53 0.00 96 1016.0
20260906070114 16 153 4.8 8.0 0.00 0.53 0.00 96 1016.1
20260906064600 16 140 3.2 9.7 0.00 0.53 0.00 96 1016.1
20260906063101 16 126 3.2 6.4 0.00 0.53 0.00 95 1016.1
20260906061625 16 92 4.8 11.3 0.00 0.53 0.00 95 1016.3
20260906060109 16 85 3.2 8.0 0.00 0.53 0.00 94 1016.4
20260906054559 16 76 8.0 14.5 0.00 0.53 0.00 94 1016.3
20260906053058 17 32 1.6 6.4 0.00 0.53 0.00 94 1016.3
20260906051556 17 163 4.8 8.0 0.00 0.53 0.00 94 1016.4
20260906050116 17 163 1.6 6.4 0.00 0.53 0.00 94 1016.3
20260906044600 17 163 1.6 6.4 0.00 0.53 0.53 92 1016.4
20260906043111 18 163 1.6 3.2 0.00 0.53 0.53 92 1016.3
20260906041601 18 163 0.0 8.0 0.00 0.53 0.53 91 1016.2
20260906040115 18 175 4.8 8.0 0.00 0.53 0.53 91 1016.2
20260906034602 19 165 3.2 9.7 0.00 0.53 0.53 91 1016.2
20260906033101 19 176 4.8 9.7 0.00 0.53 0.53 91 1016.1
20260906031610 19 167 4.8 9.7 0.00 0.53 0.53 90 1016.2
20260906030108 20 150 6.4 12.9 0.00 0.53 0.53 90 1016.1
20260906024559 20 188 6.4 14.5 0.00 0.53 0.53 90 1016.1
20260906023130 19 149 9.7 14.5 0.00 0.53 0.53 89 1016.0
20260906021608 20 119 6.4 11.3 0.00 0.53 0.53 88 1015.8
20260906020101 20 121 4.8 12.9 0.00 0.53 0.53 87 1015.8
20260906014620 20 103 6.4 14.5 0.00 0.53 0.53 85 1015.7
20260906013100 21 94 6.4 12.9 0.00 0.53 0.53 83 1015.5
20260906011559 21 114 6.4 9.7 0.00 0.53 0.53 81 1015.4
20260906010057 22 139 4.8 9.7 0.00 0.53 0.53 78 1015.5
20260906004614 23 135 3.2 8.0 0.00 0.53 0.53 75 1015.5
20260906003059 23 142 3.2 11.3 0.00 0.53 0.53 72 1015.2
20260906001557 24 163 3.2 9.7 0.00 0.53 0.53 69 1015.0
20260906000110 25 153 4.8 11.3 0.00 0.53 0.53 67 1015.1
20260905234604 25 140 3.2 8.0 0.00 0.53 0.53 66 1015.0
20260905233059 25 169 3.2 6.4 0.00 0.53 0.53 64 1014.9
20260905231603 25 159 4.8 9.7 0.00 0.53 0.53 64 1014.9
20260905230108 25 185 6.4 9.7 0.00 0.53 0.53 64 1014.7
20260905224608 25 171 6.4 11.3 0.00 0.53 0.53 64 1014.7
20260905223106 26 175 4.8 12.9 0.00 0.53 0.53 63 1014.4
20260905221602 26 194 6.4 11.3 0.00 0.53 0.53 62 1014.5
20260905220118 26 186 4.8 16.1 0.00 0.53 0.53 62 1014.3
20260905214606 26 145 11.3 24.1 0.00 0.53 0.53 63 1014.2
20260905213104 25 163 11.3 27.4 0.00 0.53 0.53 64 1014.2
20260905211610 25 155 16.1 27.4 0.00 0.53 0.53 64 1014.4